TimeCDT,TemperatureF,Dew PointF,Humidity,Sea Level PressureIn,VisibilityMPH,Wind Direction,Wind SpeedMPH,Gust SpeedMPH,PrecipitationIn,Events,Conditions,WindDirDegrees,DateUTC
12:53 AM,55.9,39.0,53,30.13,10.0,South,6.9,-,N/A,,Overcast,180,2013-04-26 05:53:00
1:53 AM,55.4,37.4,51,30.12,10.0,South,11.5,-,N/A,,Overcast,170,2013-04-26 06:53:00
2:53 AM,54.0,37.9,55,30.11,10.0,SSE,9.2,-,N/A,,Clear,160,2013-04-26 07:53:00
3:53 AM,55.0,37.9,53,30.09,10.0,South,11.5,-,N/A,,Overcast,170,2013-04-26 08:53:00
4:53 AM,54.0,37.9,55,30.09,10.0,South,10.4,-,N/A,,Clear,170,2013-04-26 09:53:00
5:53 AM,54.0,39.0,57,30.07,10.0,SSE,12.7,-,N/A,,Clear,160,2013-04-26 10:53:00
6:53 AM,52.0,41.0,66,30.09,10.0,South,11.5,-,N/A,,Clear,180,2013-04-26 11:53:00
7:53 AM,53.1,44.1,71,30.11,10.0,SSE,15.0,-,N/A,,Clear,160,2013-04-26 12:53:00
8:53 AM,55.0,44.1,67,30.12,10.0,SSE,17.3,26.5,N/A,,Mostly Cloudy,160,2013-04-26 13:53:00
9:53 AM,59.0,46.0,62,30.14,10.0,South,21.9,26.5,N/A,,Scattered Clouds,180,2013-04-26 14:53:00
10:53 AM,57.9,45.0,62,30.14,10.0,South,18.4,26.5,N/A,,Overcast,170,2013-04-26 15:53:00
11:53 AM,60.1,46.0,60,30.15,10.0,South,17.3,27.6,N/A,,Mostly Cloudy,180,2013-04-26 16:53:00
12:53 PM,61.0,48.0,62,30.16,10.0,South,20.7,34.5,N/A,,Mostly Cloudy,180,2013-04-26 17:53:00
1:08 PM,60.8,48.2,63,30.16,10.0,South,17.3,27.6,N/A,,Mostly Cloudy,180,2013-04-26 18:08:00
1:36 PM,60.8,46.4,59,30.15,10.0,South,18.4,26.5,N/A,,Scattered Clouds,180,2013-04-26 18:36:00
1:53 PM,62.1,48.0,60,30.13,10.0,South,19.6,25.3,N/A,,Partly Cloudy,170,2013-04-26 18:53:00
2:53 PM,60.1,46.9,62,30.14,10.0,South,21.9,31.1,N/A,,Mostly Cloudy,170,2013-04-26 19:53:00
3:53 PM,61.0,46.0,58,30.15,10.0,South,16.1,23.0,N/A,,Overcast,180,2013-04-26 20:53:00
4:02 PM,59.0,44.6,59,30.15,10.0,South,18.4,25.3,N/A,,Mostly Cloudy,170,2013-04-26 21:02:00
4:34 PM,57.2,44.6,63,30.15,10.0,South,15.0,24.2,N/A,,Mostly Cloudy,170,2013-04-26 21:34:00
4:44 PM,57.2,44.6,63,30.15,10.0,South,15.0,21.9,N/A,,Scattered Clouds,170,2013-04-26 21:44:00
4:53 PM,57.9,46.0,65,30.16,10.0,South,13.8,23.0,N/A,,Mostly Cloudy,170,2013-04-26 21:53:00
5:00 PM,57.2,46.4,67,30.16,10.0,South,13.8,-,N/A,,Scattered Clouds,170,2013-04-26 22:00:00
5:09 PM,57.2,46.4,67,30.15,10.0,South,9.2,-,N/A,,Mostly Cloudy,180,2013-04-26 22:09:00
5:18 PM,59.0,46.4,63,30.15,10.0,South,10.4,17.3,N/A,,Scattered Clouds,190,2013-04-26 22:18:00
5:51 PM,55.4,46.4,72,30.17,10.0,South,12.7,21.9,N/A,,Mostly Cloudy,180,2013-04-26 22:51:00
5:53 PM,55.9,46.0,69,30.17,10.0,South,15.0,21.9,N/A,,Mostly Cloudy,190,2013-04-26 22:53:00
6:53 PM,54.0,46.0,75,30.19,10.0,South,11.5,-,N/A,,Overcast,180,2013-04-26 23:53:00
7:53 PM,54.0,46.0,75,30.18,10.0,South,4.6,-,N/A,,Overcast,170,2013-04-27 00:53:00
8:53 PM,54.0,46.0,75,30.19,10.0,South,9.2,-,N/A,,Overcast,170,2013-04-27 01:53:00
9:53 PM,53.1,46.0,77,30.20,10.0,South,6.9,-,N/A,,Overcast,170,2013-04-27 02:53:00
10:53 PM,53.1,46.9,80,30.21,10.0,SSE,3.5,-,N/A,,Overcast,150,2013-04-27 03:53:00
11:39 PM,51.8,46.4,82,30.21,10.0,SE,5.8,-,N/A,,Overcast,140,2013-04-27 04:39:00
11:53 PM,52.0,46.9,83,30.20,10.0,SE,4.6,-,N/A,,Overcast,140,2013-04-27 04:53:00